Regional Weather Roundup
Issued by NWS

Home | Current Version | Previous Version | Text Only | Print | Product List | Glossary Off
Versions: 1 2 3 4 5 6 7 8 9 10 11 12 13 14 15 16 17 18 19 20 21 22 23 24 25 26 27 28 29 30 31 32 33 34 35 36 37 38 39 40 41 42 43 44 45 46 47 48 49 50

000
ASUS43 KOAX 260802
RWRNE

WEATHER ROUNDUP FOR NEBRASKA
NATIONAL WEATHER SERVICE OMAHA NE
200 AM CST MON JAN 26 2015

NOTES: SATELLITE DATA IS BEING USED TO AUGMENT CLOUD COVER ABOVE
       12000 FEET.
       "FAIR" INDICATES FEW OR NO CLOUDS BELOW 12,000 FEET WITH NO
       SIGNIFICANT WEATHER AND/OR OBSTRUCTIONS TO VISIBILITY.

  * THESE STATIONS DO NOT REPORT WEATHER SUCH AS RAIN...SNOW OR FOG.

NEZ001>004-019>022-054>056-260900-
NEBRASKA PANHANDLE

CITY           SKY/WX    TMP DP  RH WIND       PRES   REMARKS
SCOTTSBLUFF    CLOUDY    39  32  76 NW15      30.11F WCI  31
ALLIANCE       MOCLDY    36  30  79 W13       30.06S WCI  27
CHADRON        MOCLDY    43  30  60 NW5       30.05R
SIDNEY         MOCLDY    43  30  60 W16       30.12S
$$

NEZ057>060-069>072-079>082-260900-
SOUTHWEST NEBRASKA

CITY           SKY/WX    TMP DP  RH WIND       PRES   REMARKS
NORTH PLATTE   CLEAR     32  27  81 NW10      30.01S WCI  24
IMPERIAL       CLEAR     41  30  65 NW14      30.06S
MCCOOK         PTCLDY    35  29  78 W13       30.03F WCI  26
$$

NEZ005>010-023>029-035>040-094-260900-
NORTH CENTRAL NEBRASKA

CITY           SKY/WX    TMP DP  RH WIND       PRES   REMARKS
VALENTINE      CLEAR     30  28  92 SW7       29.94S WCI  23
BROKEN BOW     CLEAR     36  27  69 CALM      29.96F
ORD            CLEAR     30  25  81 CALM      29.95F
$$

NEZ041-046>049-061>064-073>077-083>087-260900-
SOUTH CENTRAL NEBRASKA

CITY           SKY/WX    TMP DP  RH WIND       PRES   REMARKS
GRAND ISLAND   PTCLDY    32  27  81 S10       30.00F WCI  24
HASTINGS       PTCLDY    32  26  78 S8        30.01F WCI  25
KEARNEY *      CLEAR     34  27  75 SW10      29.99F WCI  26
$$

NEZ011>018-030>034-042>045-260900-
NORTHEAST NEBRASKA

CITY           SKY/WX    TMP DP  RH WIND       PRES   REMARKS
NORFOLK        MOCLDY    35  29  78 S13       29.94F WCI  26
COLUMBUS *     PTCLDY    34  27  75 SW7       30.00F WCI  28
TEKAMAH        PTCLDY    30  27  88 S8        30.00F WCI  22
$$

NEZ050>053-065>068-078-088>093-260900-
SOUTHEAST NEBRASKA

CITY           SKY/WX    TMP DP  RH WIND       PRES   REMARKS
LINCOLN        CLOUDY    33  29  85 SW6       30.03F WCI  28
OMAHA EPPLEY   CLEAR     27  25  92 SE9       30.02F WCI  18
FALLS CITY     CLEAR     28  25  88 SW6       30.07F WCI  22
$$

NEZ044-045-051>053-067-260900-
OMAHA AREA

CITY           SKY/WX    TMP DP  RH WIND       PRES   REMARKS
OMAHA EPPLEY   CLEAR     27  25  92 SE9       30.02F WCI  18
OFFUTT AFB     CLEAR     25  24  96 S3        30.02F
$$



USA.gov is the U.S. government's official web portal to all federal, state and local government web resources and services.